Year,Month,Day,Hour,Minute,Value (Times are PST for temperature in C)
2009,09,23,00,00,14.50
2009,09,23,00,01,14.50
2009,09,23,00,02,14.40
2009,09,23,00,03,14.40
2009,09,23,00,04,14.30
2009,09,23,00,05,14.30
2009,09,23,00,06,14.30
2009,09,23,00,07,14.20
2009,09,23,00,08,14.20
2009,09,23,00,09,14.20
2009,09,23,00,10,14.20
2009,09,23,00,11,14.10
2009,09,23,00,12,14.10
2009,09,23,00,13,14.10
2009,09,23,00,14,14.10
2009,09,23,00,15,14.10
2009,09,23,00,16,14.00
2009,09,23,00,17,14.00
2009,09,23,00,18,14.00
2009,09,23,00,19,14.00
2009,09,23,00,20,14.00
2009,09,23,00,21,14.00
2009,09,23,00,22,14.00
2009,09,23,00,23,13.90
2009,09,23,00,24,13.90
2009,09,23,00,25,13.90
2009,09,23,00,26,13.90
2009,09,23,00,27,13.90
2009,09,23,00,28,13.90
2009,09,23,00,29,13.90
2009,09,23,00,30,13.90
2009,09,23,00,31,13.90
2009,09,23,00,32,13.90
2009,09,23,00,33,13.90
2009,09,23,00,34,13.90
2009,09,23,00,35,13.90
2009,09,23,00,36,13.90
2009,09,23,00,37,13.90
2009,09,23,00,38,13.90
2009,09,23,00,39,13.90
2009,09,23,00,40,13.90
2009,09,23,00,41,13.90
2009,09,23,00,42,13.90
2009,09,23,00,43,13.90
2009,09,23,00,44,13.80
2009,09,23,00,45,13.80
2009,09,23,00,46,13.80
2009,09,23,00,47,13.80
2009,09,23,00,48,13.80
2009,09,23,00,49,13.80
2009,09,23,00,50,13.80
2009,09,23,00,51,13.90
2009,09,23,00,52,13.90
2009,09,23,00,53,13.90
2009,09,23,00,54,13.90
2009,09,23,00,55,13.90
2009,09,23,00,56,13.90
2009,09,23,00,57,13.90
2009,09,23,00,58,13.90
2009,09,23,00,59,13.90
2009,09,23,01,00,13.90
2009,09,23,01,01,13.90
2009,09,23,01,02,13.80
2009,09,23,01,03,13.80
2009,09,23,01,04,13.80
2009,09,23,01,05,13.80
2009,09,23,01,06,13.80
2009,09,23,01,07,13.70
2009,09,23,01,08,13.70
2009,09,23,01,09,13.70
2009,09,23,01,10,13.70
2009,09,23,01,11,13.70
2009,09,23,01,12,13.70
2009,09,23,01,13,13.70
2009,09,23,01,14,13.70
2009,09,23,01,15,13.70
2009,09,23,01,16,13.70
2009,09,23,01,17,13.60
2009,09,23,01,18,13.60
2009,09,23,01,19,13.60
2009,09,23,01,20,13.60
2009,09,23,01,21,13.60
2009,09,23,01,22,13.60
2009,09,23,01,23,13.50
2009,09,23,01,24,13.50
2009,09,23,01,25,13.50
2009,09,23,01,26,13.40
2009,09,23,01,27,13.40
2009,09,23,01,28,13.40
2009,09,23,01,29,13.30
2009,09,23,01,30,13.30
2009,09,23,01,31,13.30
2009,09,23,01,32,13.30
2009,09,23,01,33,13.30
2009,09,23,01,34,13.20
2009,09,23,01,35,13.20
2009,09,23,01,36,13.20
2009,09,23,01,37,13.20
2009,09,23,01,38,13.20
2009,09,23,01,39,13.20
2009,09,23,01,40,13.20
2009,09,23,01,41,13.20
2009,09,23,01,42,13.20
2009,09,23,01,43,13.20
2009,09,23,01,44,13.10
2009,09,23,01,45,13.10
2009,09,23,01,46,13.10
2009,09,23,01,47,13.10
2009,09,23,01,48,13.10
2009,09,23,01,49,13.10
2009,09,23,01,50,13.00
2009,09,23,01,51,13.00
2009,09,23,01,52,13.00
2009,09,23,01,53,12.90
2009,09,23,01,54,12.90
2009,09,23,01,55,12.90
2009,09,23,01,56,12.90
2009,09,23,01,57,12.90
2009,09,23,01,58,12.90
2009,09,23,01,59,12.80
2009,09,23,02,00,12.80
2009,09,23,02,01,12.80
2009,09,23,02,02,12.80
2009,09,23,02,03,12.80
2009,09,23,02,04,12.80
2009,09,23,02,05,12.70
2009,09,23,02,06,12.70
2009,09,23,02,07,12.70
2009,09,23,02,08,12.70
2009,09,23,02,09,12.70
2009,09,23,02,10,12.70
2009,09,23,02,11,12.70
2009,09,23,02,12,12.70
2009,09,23,02,13,12.60
2009,09,23,02,14,12.60
2009,09,23,02,15,12.60
2009,09,23,02,16,12.60
2009,09,23,02,17,12.60
2009,09,23,02,18,12.50
2009,09,23,02,19,12.50
2009,09,23,02,20,12.50
2009,09,23,02,21,12.50
2009,09,23,02,22,12.50
2009,09,23,02,23,12.50
2009,09,23,02,24,12.50
2009,09,23,02,25,12.50
2009,09,23,02,26,12.50
2009,09,23,02,27,12.50
2009,09,23,02,28,12.50
2009,09,23,02,29,12.50
2009,09,23,02,30,12.50
2009,09,23,02,31,12.50
2009,09,23,02,32,12.50
2009,09,23,02,33,12.50
2009,09,23,02,34,12.50
2009,09,23,02,35,12.50
2009,09,23,02,36,12.50
2009,09,23,02,37,12.50
2009,09,23,02,38,12.50
2009,09,23,02,39,12.50
2009,09,23,02,40,12.40
2009,09,23,02,41,12.40
2009,09,23,02,42,12.40
2009,09,23,02,43,12.40
2009,09,23,02,44,12.40
2009,09,23,02,45,12.40
2009,09,23,02,46,12.40
2009,09,23,02,47,12.40
2009,09,23,02,48,12.40
2009,09,23,02,49,12.40
2009,09,23,02,50,12.40
2009,09,23,02,51,12.40
2009,09,23,02,52,12.40
2009,09,23,02,53,12.40
2009,09,23,02,54,12.40
2009,09,23,02,55,12.40
2009,09,23,02,56,12.40
2009,09,23,02,57,12.40
2009,09,23,02,58,12.40
2009,09,23,02,59,12.40
2009,09,23,03,00,12.30
2009,09,23,03,01,12.30
2009,09,23,03,02,12.30
2009,09,23,03,03,12.30
2009,09,23,03,04,12.30
2009,09,23,03,05,12.30
2009,09,23,03,06,12.30
2009,09,23,03,07,12.30
2009,09,23,03,08,12.30
2009,09,23,03,09,12.30
2009,09,23,03,10,12.40
2009,09,23,03,11,12.40
2009,09,23,03,12,12.40
2009,09,23,03,13,12.40
2009,09,23,03,14,12.40
2009,09,23,03,15,12.40
2009,09,23,03,16,12.40
2009,09,23,03,17,12.30
2009,09,23,03,18,12.30
2009,09,23,03,19,12.30
2009,09,23,03,20,12.30
2009,09,23,03,21,12.30
2009,09,23,03,22,12.30
2009,09,23,03,23,12.30
2009,09,23,03,24,12.30
2009,09,23,03,25,12.30
2009,09,23,03,26,12.30
2009,09,23,03,27,12.30
2009,09,23,03,28,12.30
2009,09,23,03,29,12.30
2009,09,23,03,30,12.30
2009,09,23,03,31,12.30
2009,09,23,03,32,12.30
2009,09,23,03,33,12.30
2009,09,23,03,34,12.30
2009,09,23,03,35,12.30
2009,09,23,03,36,12.30
2009,09,23,03,37,12.30
2009,09,23,03,38,12.30
2009,09,23,03,39,12.30
2009,09,23,03,40,12.30
2009,09,23,03,41,12.30
2009,09,23,03,42,12.30
2009,09,23,03,43,12.30
2009,09,23,03,44,12.30
2009,09,23,03,45,12.30
2009,09,23,03,46,12.30
2009,09,23,03,47,12.30
2009,09,23,03,48,12.30
2009,09,23,03,49,12.30
2009,09,23,03,50,12.30
2009,09,23,03,51,12.30
2009,09,23,03,52,12.20
2009,09,23,03,53,12.20
2009,09,23,03,54,12.20
2009,09,23,03,55,12.20
2009,09,23,03,56,12.10
2009,09,23,03,57,12.10
2009,09,23,03,58,12.10
2009,09,23,03,59,12.10
2009,09,23,04,00,12.00
2009,09,23,04,01,12.00
2009,09,23,04,02,11.90
2009,09,23,04,03,11.90
2009,09,23,04,04,11.80
2009,09,23,04,05,11.80
2009,09,23,04,06,11.80
2009,09,23,04,07,11.80
2009,09,23,04,08,11.70
2009,09,23,04,09,11.70
2009,09,23,04,10,11.70
2009,09,23,04,11,11.70
2009,09,23,04,12,11.70
2009,09,23,04,13,11.80
2009,09,23,04,14,11.80
2009,09,23,04,15,11.80
2009,09,23,04,16,11.80
2009,09,23,04,17,11.80
2009,09,23,04,18,11.80
2009,09,23,04,19,11.80
2009,09,23,04,20,11.80
2009,09,23,04,21,11.80
2009,09,23,04,22,11.80
2009,09,23,04,23,11.80
2009,09,23,04,24,11.80
2009,09,23,04,25,11.80
2009,09,23,04,26,11.80
2009,09,23,04,27,11.80
2009,09,23,04,28,11.80
2009,09,23,04,29,11.80
2009,09,23,04,30,11.80
2009,09,23,04,31,11.80
2009,09,23,04,32,11.80
2009,09,23,04,33,11.80
2009,09,23,04,34,11.70
2009,09,23,04,35,11.70
2009,09,23,04,36,11.70
2009,09,23,04,37,11.70
2009,09,23,04,38,11.70
2009,09,23,04,39,11.70
2009,09,23,04,40,11.70
2009,09,23,04,41,11.70
2009,09,23,04,42,11.70
2009,09,23,04,43,11.60
2009,09,23,04,44,11.60
2009,09,23,04,45,11.60
2009,09,23,04,46,11.60
2009,09,23,04,47,11.50
2009,09,23,04,48,11.50
2009,09,23,04,49,11.40
2009,09,23,04,50,11.40
2009,09,23,04,51,11.40
2009,09,23,04,52,11.40
2009,09,23,04,53,11.40
2009,09,23,04,54,11.40
2009,09,23,04,55,11.40
2009,09,23,04,56,11.40
2009,09,23,04,57,11.40
2009,09,23,04,58,11.40
2009,09,23,04,59,11.30
2009,09,23,05,00,11.40
2009,09,23,05,01,11.40
2009,09,23,05,02,11.40
2009,09,23,05,03,11.40
2009,09,23,05,04,11.40
2009,09,23,05,05,11.40
2009,09,23,05,06,11.40
2009,09,23,05,07,11.40
2009,09,23,05,08,11.40
2009,09,23,05,09,11.30
2009,09,23,05,10,11.30
2009,09,23,05,11,11.30
2009,09,23,05,12,11.30
2009,09,23,05,13,11.30
2009,09,23,05,14,11.30
2009,09,23,05,15,11.30
2009,09,23,05,16,11.30
2009,09,23,05,17,11.30
2009,09,23,05,18,11.30
2009,09,23,05,19,11.30
2009,09,23,05,20,11.30
2009,09,23,05,21,11.30
2009,09,23,05,22,11.30
2009,09,23,05,23,11.20
2009,09,23,05,24,11.20
2009,09,23,05,25,11.20
2009,09,23,05,26,11.20
2009,09,23,05,27,11.20
2009,09,23,05,28,11.10
2009,09,23,05,29,11.10
2009,09,23,05,30,11.10
2009,09,23,05,31,11.10
2009,09,23,05,32,11.10
2009,09,23,05,33,11.10
2009,09,23,05,34,11.10
2009,09,23,05,35,11.10
2009,09,23,05,36,11.10
2009,09,23,05,37,11.10
2009,09,23,05,38,11.10
2009,09,23,05,39,11.20
2009,09,23,05,40,11.20
2009,09,23,05,41,11.20
2009,09,23,05,42,11.20
2009,09,23,05,43,11.20
2009,09,23,05,44,11.20
2009,09,23,05,45,11.20
2009,09,23,05,46,11.30
2009,09,23,05,47,11.30
2009,09,23,05,48,11.30
2009,09,23,05,49,11.30
2009,09,23,05,50,11.30
2009,09,23,05,51,11.30
2009,09,23,05,52,11.30
2009,09,23,05,53,11.20
2009,09,23,05,54,11.20
2009,09,23,05,55,11.20
2009,09,23,05,56,11.20
2009,09,23,05,57,11.30
2009,09,23,05,58,11.30
2009,09,23,05,59,11.30
2009,09,23,06,00,11.30
2009,09,23,06,01,11.30
2009,09,23,06,02,11.30
2009,09,23,06,03,11.30
2009,09,23,06,04,11.30
2009,09,23,06,05,11.30
2009,09,23,06,06,11.30
2009,09,23,06,07,11.30
2009,09,23,06,08,11.30
2009,09,23,06,09,11.30
2009,09,23,06,10,11.30
2009,09,23,06,11,11.30
2009,09,23,06,12,11.30
2009,09,23,06,13,11.30
2009,09,23,06,14,11.30
2009,09,23,06,15,11.30
2009,09,23,06,16,11.20
2009,09,23,06,17,11.20
2009,09,23,06,18,11.20
2009,09,23,06,19,11.20
2009,09,23,06,20,11.20
2009,09,23,06,21,11.10
2009,09,23,06,22,11.10
2009,09,23,06,23,11.10
2009,09,23,06,24,11.10
2009,09,23,06,25,11.10
2009,09,23,06,26,11.10
2009,09,23,06,27,11.10
2009,09,23,06,28,11.10
2009,09,23,06,29,11.10
2009,09,23,06,30,11.10
2009,09,23,06,31,11.10
2009,09,23,06,32,11.10
2009,09,23,06,33,11.10
2009,09,23,06,34,11.10
2009,09,23,06,35,11.10
2009,09,23,06,36,11.10
2009,09,23,06,37,11.10
2009,09,23,06,38,11.10
2009,09,23,06,39,11.10
2009,09,23,06,40,11.10
2009,09,23,06,41,11.10
2009,09,23,06,42,11.10
2009,09,23,06,43,11.10
2009,09,23,06,44,11.10
2009,09,23,06,45,11.10
2009,09,23,06,46,11.10
2009,09,23,06,47,11.10
2009,09,23,06,48,11.00
2009,09,23,06,49,11.00
2009,09,23,06,50,11.00
2009,09,23,06,51,11.00
2009,09,23,06,52,11.00
2009,09,23,06,53,10.90
2009,09,23,06,54,10.90
2009,09,23,06,55,10.90
2009,09,23,06,56,10.90
2009,09,23,06,57,10.90
2009,09,23,06,58,10.90
2009,09,23,06,59,10.90
2009,09,23,07,00,10.80
2009,09,23,07,01,10.80
2009,09,23,07,02,10.90
2009,09,23,07,03,10.90
2009,09,23,07,04,10.90
2009,09,23,07,05,10.90
2009,09,23,07,06,10.80
2009,09,23,07,07,10.80
2009,09,23,07,08,10.80
2009,09,23,07,09,10.80
2009,09,23,07,10,10.80
2009,09,23,07,11,10.80
2009,09,23,07,12,10.80
2009,09,23,07,13,10.80
2009,09,23,07,14,10.80
2009,09,23,07,15,10.80
2009,09,23,07,16,10.80
2009,09,23,07,17,10.90
2009,09,23,07,18,10.90
2009,09,23,07,19,10.90
2009,09,23,07,20,10.90
2009,09,23,07,21,11.00
2009,09,23,07,22,11.00
2009,09,23,07,23,11.00
2009,09,23,07,24,11.00
2009,09,23,07,25,11.10
2009,09,23,07,26,11.10
2009,09,23,07,27,11.10
2009,09,23,07,28,11.10
2009,09,23,07,29,11.10
2009,09,23,07,30,11.10
2009,09,23,07,31,11.10
2009,09,23,07,32,11.10
2009,09,23,07,33,11.10
2009,09,23,07,34,11.10
2009,09,23,07,35,11.10
2009,09,23,07,36,11.10
2009,09,23,07,37,11.10
2009,09,23,07,38,11.10
2009,09,23,07,39,11.10
2009,09,23,07,40,11.10
2009,09,23,07,41,11.10
2009,09,23,07,42,11.10
2009,09,23,07,43,11.20
2009,09,23,07,44,11.20
2009,09,23,07,45,11.20
2009,09,23,07,46,11.20
2009,09,23,07,47,11.30
2009,09,23,07,48,11.30
2009,09,23,07,49,11.30
2009,09,23,07,50,11.40
2009,09,23,07,51,11.50
2009,09,23,07,52,11.50
2009,09,23,07,53,11.60
2009,09,23,07,54,11.60
2009,09,23,07,55,11.70
2009,09,23,07,56,11.80
2009,09,23,07,57,11.90
2009,09,23,07,58,11.90
2009,09,23,07,59,12.00
2009,09,23,08,00,12.10
2009,09,23,08,01,12.10
2009,09,23,08,02,12.20
2009,09,23,08,03,12.20
2009,09,23,08,04,12.30
2009,09,23,08,05,12.40
2009,09,23,08,06,12.50
2009,09,23,08,07,12.60
2009,09,23,08,08,12.60
2009,09,23,08,09,12.70
2009,09,23,08,10,12.70
2009,09,23,08,11,12.80
2009,09,23,08,12,12.80
2009,09,23,08,13,12.80
2009,09,23,08,14,12.90
2009,09,23,08,15,13.00
2009,09,23,08,16,13.10
2009,09,23,08,17,13.20
2009,09,23,08,18,13.30
2009,09,23,08,19,13.30
2009,09,23,08,20,13.40
2009,09,23,08,21,13.50
2009,09,23,08,22,13.60
2009,09,23,08,23,13.70
2009,09,23,08,24,13.80
2009,09,23,08,25,13.90
2009,09,23,08,26,14.00
2009,09,23,08,27,14.10
2009,09,23,08,28,14.10
2009,09,23,08,29,14.20
2009,09,23,08,30,14.20
2009,09,23,08,31,14.30
2009,09,23,08,32,14.40
2009,09,23,08,33,14.50
2009,09,23,08,34,14.60
2009,09,23,08,35,14.70
2009,09,23,08,36,14.80
2009,09,23,08,37,15.00
2009,09,23,08,38,15.00
2009,09,23,08,39,15.00
2009,09,23,08,40,15.00
2009,09,23,08,41,15.10
2009,09,23,08,42,15.30
2009,09,23,08,43,15.30
2009,09,23,08,44,15.50
2009,09,23,08,45,15.50
2009,09,23,08,46,15.60
2009,09,23,08,47,15.60
2009,09,23,08,48,15.70
2009,09,23,08,49,15.80
2009,09,23,08,50,15.80
2009,09,23,08,51,15.90
2009,09,23,08,52,16.00
2009,09,23,08,53,16.10
2009,09,23,08,54,16.10
2009,09,23,08,55,16.20
2009,09,23,08,56,16.20
2009,09,23,08,57,16.20
2009,09,23,08,58,16.20
2009,09,23,08,59,16.20
2009,09,23,09,00,16.20
2009,09,23,09,01,16.20
2009,09,23,09,02,16.20
2009,09,23,09,03,16.30
2009,09,23,09,04,16.30
2009,09,23,09,05,16.30
2009,09,23,09,06,16.40
2009,09,23,09,07,16.40
2009,09,23,09,08,16.40
2009,09,23,09,09,16.50
2009,09,23,09,10,16.50
2009,09,23,09,11,16.60
2009,09,23,09,12,16.70
2009,09,23,09,13,16.70
2009,09,23,09,14,16.80
2009,09,23,09,15,16.90
2009,09,23,09,16,16.90
2009,09,23,09,17,17.00
2009,09,23,09,18,17.00
2009,09,23,09,19,17.10
2009,09,23,09,20,17.10
2009,09,23,09,21,17.20
2009,09,23,09,22,17.20
2009,09,23,09,23,17.20
2009,09,23,09,24,17.30
2009,09,23,09,25,17.30
2009,09,23,09,26,17.30
2009,09,23,09,27,17.30
2009,09,23,09,28,17.30
2009,09,23,09,29,17.20
2009,09,23,09,30,17.20
2009,09,23,09,31,17.20
2009,09,23,09,32,17.20
2009,09,23,09,33,17.20
2009,09,23,09,34,17.30
2009,09,23,09,35,17.30
2009,09,23,09,36,17.30
2009,09,23,09,37,17.40
2009,09,23,09,38,17.40
2009,09,23,09,39,17.40
2009,09,23,09,40,17.40
2009,09,23,09,41,17.50
2009,09,23,09,42,17.50
2009,09,23,09,43,17.50
2009,09,23,09,44,17.50
2009,09,23,09,45,17.50
2009,09,23,09,46,17.40
2009,09,23,09,47,17.40
2009,09,23,09,48,17.30
2009,09,23,09,49,17.40
2009,09,23,09,50,17.40
2009,09,23,09,51,17.40
2009,09,23,09,52,17.40
2009,09,23,09,53,17.40
2009,09,23,09,54,17.40
2009,09,23,09,55,17.40
2009,09,23,09,56,17.40
2009,09,23,09,57,17.40
2009,09,23,09,58,17.50
2009,09,23,09,59,17.50
2009,09,23,10,00,17.60
2009,09,23,10,01,17.60
2009,09,23,10,02,17.60
2009,09,23,10,03,17.70
2009,09,23,10,04,17.80
2009,09,23,10,05,17.80
2009,09,23,10,06,17.90
2009,09,23,10,07,17.90
2009,09,23,10,08,18.00
2009,09,23,10,09,18.10
2009,09,23,10,10,18.10
2009,09,23,10,11,18.10
2009,09,23,10,12,18.20
2009,09,23,10,13,18.20
2009,09,23,10,14,18.30
2009,09,23,10,15,18.30
2009,09,23,10,16,18.40
2009,09,23,10,17,18.40
2009,09,23,10,18,18.50
2009,09,23,10,19,18.50
2009,09,23,10,20,18.60
2009,09,23,10,21,18.60
2009,09,23,10,22,18.60
2009,09,23,10,23,18.70
2009,09,23,10,24,18.70
2009,09,23,10,25,18.70
2009,09,23,10,26,18.80
2009,09,23,10,27,18.80
2009,09,23,10,28,18.80
2009,09,23,10,29,18.80
2009,09,23,10,30,18.80
2009,09,23,10,31,18.80
2009,09,23,10,32,18.80
2009,09,23,10,33,18.90
2009,09,23,10,34,18.90
2009,09,23,10,35,18.90
2009,09,23,10,36,18.90
2009,09,23,10,37,18.80
2009,09,23,10,38,18.80
2009,09,23,10,39,18.80
2009,09,23,10,40,18.80
2009,09,23,10,41,18.80
2009,09,23,10,42,18.80
2009,09,23,10,43,18.80
2009,09,23,10,44,18.80
2009,09,23,10,45,18.80
2009,09,23,10,46,18.80
2009,09,23,10,47,18.80
2009,09,23,10,48,18.80
2009,09,23,10,49,18.80
2009,09,23,10,50,18.80
2009,09,23,10,51,18.80
2009,09,23,10,52,18.80
2009,09,23,10,53,18.90
2009,09,23,10,54,18.90
2009,09,23,10,55,19.00
2009,09,23,10,56,19.00
2009,09,23,10,57,19.00
2009,09,23,10,58,19.10
2009,09,23,10,59,19.20
2009,09,23,11,00,19.30
2009,09,23,11,01,19.40
2009,09,23,11,02,19.40
2009,09,23,11,03,19.50
2009,09,23,11,04,19.60
2009,09,23,11,05,19.70
2009,09,23,11,06,19.80
2009,09,23,11,07,19.80
2009,09,23,11,08,19.80
2009,09,23,11,09,19.90
2009,09,23,11,10,19.90
2009,09,23,11,11,19.90
2009,09,23,11,12,19.90
2009,09,23,11,13,19.90
2009,09,23,11,14,19.90
2009,09,23,11,15,19.90
2009,09,23,11,16,19.90
2009,09,23,11,17,20.00
2009,09,23,11,18,20.00
2009,09,23,11,19,20.10
2009,09,23,11,20,20.10
2009,09,23,11,21,20.20
2009,09,23,11,22,20.30
2009,09,23,11,23,20.50
2009,09,23,11,24,20.60
2009,09,23,11,25,20.70
2009,09,23,11,26,20.80
2009,09,23,11,27,21.00
2009,09,23,11,28,21.00
2009,09,23,11,29,21.10
2009,09,23,11,30,21.20
2009,09,23,11,31,21.20
2009,09,23,11,32,21.30
2009,09,23,11,33,21.30
2009,09,23,11,34,21.40
2009,09,23,11,35,21.40
2009,09,23,11,36,21.40
2009,09,23,11,37,21.40
2009,09,23,11,38,21.50
2009,09,23,11,39,21.50
2009,09,23,11,40,21.60
2009,09,23,11,41,21.60
2009,09,23,11,42,21.60
2009,09,23,11,43,21.60
2009,09,23,11,44,21.70
2009,09,23,11,45,21.70
2009,09,23,11,46,21.80
2009,09,23,11,47,21.80
2009,09,23,11,48,21.80
2009,09,23,11,49,21.90
2009,09,23,11,50,21.90
2009,09,23,11,51,21.90
2009,09,23,11,52,22.00
2009,09,23,11,53,22.00
2009,09,23,11,54,22.10
2009,09,23,11,55,22.10
2009,09,23,11,56,22.20
2009,09,23,11,57,22.20
2009,09,23,11,58,22.20
2009,09,23,11,59,22.20
2009,09,23,12,00,22.30
2009,09,23,12,01,22.40
2009,09,23,12,02,22.40
2009,09,23,12,03,22.40
2009,09,23,12,04,22.50
2009,09,23,12,05,22.60
2009,09,23,12,06,22.60
2009,09,23,12,07,22.70
2009,09,23,12,08,22.70
2009,09,23,12,09,22.70
2009,09,23,12,10,22.80
2009,09,23,12,11,22.80
2009,09,23,12,12,22.80
2009,09,23,12,13,22.80
2009,09,23,12,14,22.90
2009,09,23,12,15,22.90
2009,09,23,12,16,22.80
2009,09,23,12,17,22.80
2009,09,23,12,18,22.70
2009,09,23,12,19,22.70
2009,09,23,12,20,22.70
2009,09,23,12,21,22.60
2009,09,23,12,22,22.60
2009,09,23,12,23,22.60
2009,09,23,12,24,22.60
2009,09,23,12,25,22.60
2009,09,23,12,26,22.60
2009,09,23,12,27,22.70
2009,09,23,12,28,22.80
2009,09,23,12,29,22.80
2009,09,23,12,30,22.90
2009,09,23,12,31,22.90
2009,09,23,12,32,22.90
2009,09,23,12,33,22.80
2009,09,23,12,34,22.80
2009,09,23,12,35,22.80
2009,09,23,12,36,22.80
2009,09,23,12,37,22.80
2009,09,23,12,38,22.80
2009,09,23,12,39,22.70
2009,09,23,12,40,22.60
2009,09,23,12,41,22.50
2009,09,23,12,42,22.50
2009,09,23,12,43,22.60
2009,09,23,12,44,22.60
2009,09,23,12,45,22.70
2009,09,23,12,46,22.80
2009,09,23,12,47,23.00
2009,09,23,12,48,23.00
2009,09,23,12,49,23.00
2009,09,23,12,50,23.00
2009,09,23,12,51,23.00
2009,09,23,12,52,23.00
2009,09,23,12,53,23.00
2009,09,23,12,54,23.00
2009,09,23,12,55,22.90
2009,09,23,12,56,22.80
2009,09,23,12,57,22.80
2009,09,23,12,58,22.80
2009,09,23,12,59,22.80
2009,09,23,13,00,22.80
2009,09,23,13,01,22.70
2009,09,23,13,02,22.70
2009,09,23,13,03,22.60
2009,09,23,13,04,22.40
2009,09,23,13,05,22.30
2009,09,23,13,06,22.20
2009,09,23,13,07,22.10
2009,09,23,13,08,22.00
2009,09,23,13,09,21.90
2009,09,23,13,10,21.80
2009,09,23,13,11,21.80
2009,09,23,13,12,21.80
2009,09,23,13,13,21.80
2009,09,23,13,14,21.80
2009,09,23,13,15,21.80
2009,09,23,13,16,21.80
2009,09,23,13,17,21.70
2009,09,23,13,18,21.70
2009,09,23,13,19,21.60
2009,09,23,13,20,21.50
2009,09,23,13,21,21.40
2009,09,23,13,22,21.40
2009,09,23,13,23,21.30
2009,09,23,13,24,21.30
2009,09,23,13,25,21.30
2009,09,23,13,26,21.30
2009,09,23,13,27,21.40
2009,09,23,13,28,21.40
2009,09,23,13,29,21.60
2009,09,23,13,30,21.60
2009,09,23,13,31,21.70
2009,09,23,13,32,21.70
2009,09,23,13,33,21.80
2009,09,23,13,34,21.80
2009,09,23,13,35,21.80
2009,09,23,13,36,21.80
2009,09,23,13,37,21.80
2009,09,23,13,38,21.90
2009,09,23,13,39,22.00
2009,09,23,13,40,22.10
2009,09,23,13,41,22.10
2009,09,23,13,42,22.10
2009,09,23,13,43,22.20
2009,09,23,13,44,22.10
2009,09,23,13,45,22.00
2009,09,23,13,46,21.90
2009,09,23,13,47,21.90
2009,09,23,13,48,21.90
2009,09,23,13,49,21.80
2009,09,23,13,50,21.80
2009,09,23,13,51,21.80
2009,09,23,13,52,21.70
2009,09,23,13,53,21.80
2009,09,23,13,54,21.80
2009,09,23,13,55,21.80
2009,09,23,13,56,21.80
2009,09,23,13,57,21.80
2009,09,23,13,58,21.80
2009,09,23,13,59,21.80
2009,09,23,14,00,21.70
2009,09,23,14,01,21.70
2009,09,23,14,02,21.70
2009,09,23,14,03,21.60
2009,09,23,14,04,21.50
2009,09,23,14,05,21.20
2009,09,23,14,06,21.10
2009,09,23,14,07,21.10
2009,09,23,14,08,21.00
2009,09,23,14,09,20.90
2009,09,23,14,10,20.70
2009,09,23,14,11,20.60
2009,09,23,14,12,20.60
2009,09,23,14,13,20.60
2009,09,23,14,14,20.60
2009,09,23,14,15,20.70
2009,09,23,14,16,20.80
2009,09,23,14,17,20.90
2009,09,23,14,18,21.10
2009,09,23,14,19,21.20
2009,09,23,14,20,21.30
2009,09,23,14,21,21.40
2009,09,23,14,22,21.50
2009,09,23,14,23,21.70
2009,09,23,14,24,21.90
2009,09,23,14,25,22.10
2009,09,23,14,26,22.20
2009,09,23,14,27,22.40
2009,09,23,14,28,22.40
2009,09,23,14,29,22.40
2009,09,23,14,30,22.40
2009,09,23,14,31,22.40
2009,09,23,14,32,22.50
2009,09,23,14,33,22.50
2009,09,23,14,34,22.60
2009,09,23,14,35,22.60
2009,09,23,14,36,22.60
2009,09,23,14,37,22.70
2009,09,23,14,38,22.80
2009,09,23,14,39,22.80
2009,09,23,14,40,22.80
2009,09,23,14,41,22.80
2009,09,23,14,42,22.80
2009,09,23,14,43,22.80
2009,09,23,14,44,22.70
2009,09,23,14,45,22.70
2009,09,23,14,46,22.70
2009,09,23,14,47,22.70
2009,09,23,14,48,22.60
2009,09,23,14,49,22.60
2009,09,23,14,50,22.40
2009,09,23,14,51,22.30
2009,09,23,14,52,22.30
2009,09,23,14,53,22.30
2009,09,23,14,54,22.10
2009,09,23,14,55,22.00
2009,09,23,14,56,22.00
2009,09,23,14,57,21.90
2009,09,23,14,58,21.80
2009,09,23,14,59,21.70
2009,09,23,15,00,21.60
2009,09,23,15,01,21.60
2009,09,23,15,02,21.60
2009,09,23,15,03,21.70
2009,09,23,15,04,21.80
2009,09,23,15,05,21.70
2009,09,23,15,06,21.60
2009,09,23,15,07,21.60
2009,09,23,15,08,21.70
2009,09,23,15,09,21.70
2009,09,23,15,10,21.70
2009,09,23,15,11,21.70
2009,09,23,15,12,21.70
2009,09,23,15,13,21.60
2009,09,23,15,14,21.50
2009,09,23,15,15,21.50
2009,09,23,15,16,21.40
2009,09,23,15,17,21.20
2009,09,23,15,18,21.10
2009,09,23,15,19,21.10
2009,09,23,15,20,21.10
2009,09,23,15,21,21.10
2009,09,23,15,22,21.10
2009,09,23,15,23,21.20
2009,09,23,15,24,21.20
2009,09,23,15,25,21.20
2009,09,23,15,26,21.20
2009,09,23,15,27,21.30
2009,09,23,15,28,21.40
2009,09,23,15,29,21.50
2009,09,23,15,30,21.50
2009,09,23,15,31,21.60
2009,09,23,15,32,21.50
2009,09,23,15,33,21.30
2009,09,23,15,34,21.10
2009,09,23,15,35,21.00
2009,09,23,15,36,20.90
2009,09,23,15,37,20.80
2009,09,23,15,38,20.70
2009,09,23,15,39,20.40
2009,09,23,15,40,20.20
2009,09,23,15,41,20.00
2009,09,23,15,42,19.90
2009,09,23,15,43,19.80
2009,09,23,15,44,19.80
2009,09,23,15,45,19.80
2009,09,23,15,46,19.80
2009,09,23,15,47,19.80
2009,09,23,15,48,19.70
2009,09,23,15,49,19.70
2009,09,23,15,50,19.70
2009,09,23,15,51,19.80
2009,09,23,15,52,19.80
2009,09,23,15,53,19.80
2009,09,23,15,54,19.80
2009,09,23,15,55,19.80
2009,09,23,15,56,19.80
2009,09,23,15,57,19.90
2009,09,23,15,58,20.00
2009,09,23,15,59,20.00
2009,09,23,16,00,20.10
2009,09,23,16,01,20.10
2009,09,23,16,02,20.10
2009,09,23,16,03,20.20
2009,09,23,16,04,20.30
2009,09,23,16,05,20.40
2009,09,23,16,06,20.40
2009,09,23,16,07,20.50
2009,09,23,16,08,20.60
2009,09,23,16,09,20.70
2009,09,23,16,10,20.80
2009,09,23,16,11,20.90
2009,09,23,16,12,21.00
2009,09,23,16,13,21.10
2009,09,23,16,14,21.20
2009,09,23,16,15,21.30
2009,09,23,16,16,21.40
2009,09,23,16,17,21.50
2009,09,23,16,18,21.60
2009,09,23,16,19,21.80
2009,09,23,16,20,21.80
2009,09,23,16,21,21.90
2009,09,23,16,22,21.90
2009,09,23,16,23,22.00
2009,09,23,16,24,22.10
2009,09,23,16,25,22.20
2009,09,23,16,26,22.40
2009,09,23,16,27,22.50
2009,09,23,16,28,22.70
2009,09,23,16,29,22.90
2009,09,23,16,30,23.00
2009,09,23,16,31,23.10
2009,09,23,16,32,23.30
2009,09,23,16,33,23.40
2009,09,23,16,34,23.50
2009,09,23,16,35,23.60
2009,09,23,16,36,23.70
2009,09,23,16,37,23.70
2009,09,23,16,38,23.70
2009,09,23,16,39,23.70
2009,09,23,16,40,23.70
2009,09,23,16,41,23.70
2009,09,23,16,42,23.70
2009,09,23,16,43,23.60
2009,09,23,16,44,23.50
2009,09,23,16,45,23.40
2009,09,23,16,46,23.40
2009,09,23,16,47,23.40
2009,09,23,16,48,23.30
2009,09,23,16,49,23.20
2009,09,23,16,50,23.20
2009,09,23,16,51,23.20
2009,09,23,16,52,23.10
2009,09,23,16,53,23.10
2009,09,23,16,54,23.10
2009,09,23,16,55,23.00
2009,09,23,16,56,22.90
2009,09,23,16,57,22.80
2009,09,23,16,58,22.60
2009,09,23,16,59,22.50
2009,09,23,17,00,22.40
2009,09,23,17,01,22.40
2009,09,23,17,02,22.30
2009,09,23,17,03,22.30
2009,09,23,17,04,22.40
2009,09,23,17,05,22.40
2009,09,23,17,06,22.40
2009,09,23,17,07,22.40
2009,09,23,17,08,22.50
2009,09,23,17,09,22.50
2009,09,23,17,10,22.60
2009,09,23,17,11,22.60
2009,09,23,17,12,22.60
2009,09,23,17,13,22.70
2009,09,23,17,14,22.70
2009,09,23,17,15,22.70
2009,09,23,17,16,22.80
2009,09,23,17,17,22.80
2009,09,23,17,18,22.90
2009,09,23,17,19,22.90